Regional Weather Roundup
Issued by NWS

Home | Current Version | Previous Version | Text Only | Print | Product List | Glossary Off
Versions: 1 2 3 4 5 6 7 8 9 10 11 12 13 14 15 16 17 18 19 20 21 22 23 24 25 26 27 28 29 30 31 32 33 34 35 36 37 38 39 40 41 42 43 44 45 46 47 48 49 50

000
ASUS43 KFSD 221802
RWRSD

WEATHER ROUNDUP FOR SOUTH DAKOTA
NATIONAL WEATHER SERVICE SIOUX FALLS SD
100 PM CDT WED MAR 22 2017

NOTE: "FAIR" INDICATES FEW OR NO CLOUDS BELOW 12,000 FEET WITH NO
SIGNIFICANT WEATHER AND/OR OBSTRUCTIONS TO VISIBILITY.


SDZ001>005-009-010-012>017-221900-
NORTHWEST AND NORTH CENTRAL SOUTH DAKOTA

CITY           SKY/WX    TMP DP  RH WIND       PRES   REMARKS
BUFFALO          N/A     46  36  68 SE15      29.78F
FAITH            N/A     46  35  65 SE28G38   29.87F
MOBRIDGE       MOSUNNY   43  26  51 S29G40    30.00F
$$

SDZ012>016-024>037-041>051-057-063-072>074-221900-
SOUTHWEST AND SOUTH CENTRAL SOUTH DAKOTA

CITY           SKY/WX    TMP DP  RH WIND       PRES   REMARKS
RAPID CTY ARPT CLOUDY    57  38  48 S28G33    29.82F
PIERRE         CLOUDY    44  31  60 SE29G40   30.03F
CUSTER         SUNNY     53  34  48 SW8G18    29.89F
ELLSWORTH AFB  CLOUDY    56  40  53 S24G31    29.79F
PHILIP         CLOUDY    54  37  52 S29G36    29.92F
PINE RIDGE     CLOUDY    53  38  56 S21G35    29.93F
SPEARFISH      HAZE      54  39  58 NW5       29.83S VSB 1
WINNER         CLOUDY    41  29  62 S21G38    30.11F
$$

SDZ004>011-016>023-039-040-221900-
NORTHEAST SOUTH DAKOTA

CITY           SKY/WX    TMP DP  RH WIND       PRES   REMARKS
ABERDEEN       CLOUDY    31  19  61 S20G31    30.22F WCI  19
WATERTOWN      CLOUDY    30  17  58 SE22G30   30.27F WCI  17
BROOKINGS      MIX PCPN  32  18  56 SE20G28   30.31F WCI  20
SISSETON         N/A     30  19  63 S25G31    30.31F WCI  16
$$

SDZ017-020-022-023-036>040-048>070-221900-
SOUTHEAST SOUTH DAKOTA

CITY           SKY/WX    TMP DP  RH WIND       PRES   REMARKS
SIOUX FALLS    FLURRIES  32  20  61 SE17      30.35S WCI  21
HURON          CLOUDY    31  24  75 SE21G30   30.25F WCI  18
CHAMBERLAIN    CLOUDY    37  30  75 SE24G31   30.15F
MITCHELL       CLOUDY    31  26  82 SE21G28   30.28F WCI  18
YANKTON        CLOUDY    36  23  60 SE16G23   30.31F
$$

ABBREVIATIONS USED IN REMARKS
   TC - TEMPERATURE IN CELSIUS
  WCI - WIND CHILL INDEX
   HX - HEAT INDEX
  VSB - VISIBILITY





USA.gov is the U.S. government's official web portal to all federal, state and local government web resources and services.